Wind_Speed
34 34 34 34 33 32 32 33 33 32 31 30 29 27 26 26 27 29 31 32 33 34 35 35 36 36 37 37 37 37 36 36 36 36 36 36 35 34 32 32 31 30
34 34 33 33 33 32 33 33 33 33 31 30 29 27 26 26 27 28 30 31 33 34 34 35 36 36 36 36 36 36 36 35 35 35 36 36 35 34 33 32 33 32
35 34 34 34 33 32 32 33 34 34 32 31 30 29 29 29 29 30 30 31 32 33 34 35 35 36 37 37 36 36 35 34 34 34 35 35 34 33 33 34 34 33
38 37 36 35 35 33 33 34 34 34 34 33 32 32 32 32 33 33 33 34 34 34 35 36 36 36 37 37 37 36 36 34 34 34 34 33 33 33 34 35 35 34
41 40 39 38 36 35 35 34 34 34 34 35 35 35 35 35 35 36 37 37 37 37 37 38 38 37 37 38 37 37 36 35 34 34 34 33 33 33 34 35 36 35
45 44 42 40 39 38 37 36 35 35 36 36 37 38 38 38 37 37 38 39 40 40 40 40 41 40 39 38 38 38 37 36 36 35 34 34 33 34 34 35 36 36
48 46 45 43 42 41 40 39 38 38 38 39 40 40 40 40 39 38 38 39 41 41 41 42 43 42 41 39 38 38 37 37 37 36 35 34 34 35 35 36 36 36
49 48 47 46 45 44 43 41 41 40 40 41 42 42 42 42 41 39 40 41 42 42 43 45 45 44 41 40 38 37 37 36 36 36 36 35 35 36 36 36 37 37
49 49 48 48 47 46 44 43 42 41 41 42 42 43 43 42 42 41 41 41 42 43 44 46 47 45 41 39 38 37 35 35 36 36 36 35 35 36 37 37 37 37
43 44 45 46 46 45 44 43 42 42 42 42 42 42 43 42 43 42 42 41 42 44 45 47 48 44 41 39 38 36 35 34 35 36 36 35 35 36 37 37 37 37
35 36 37 40 41 42 43 43 43 43 43 43 43 43 43 43 43 43 43 43 43 44 45 46 46 42 40 39 38 36 35 34 34 35 35 35 35 36 36 37 37 37
32 32 33 34 35 38 39 41 42 42 43 43 43 43 44 44 44 44 44 44 43 43 43 43 42 40 39 39 37 36 35 34 34 34 34 34 34 34 35 36 36 35
30 32 33 34 34 36 37 39 40 41 42 43 43 44 45 44 44 44 43 43 42 40 39 39 39 39 39 38 38 37 35 34 34 34 33 32 32 32 33 34 34 34
28 29 31 32 33 34 35 36 38 38 40 41 41 43 43 43 43 42 40 40 39 37 37 36 37 39 39 39 39 36 32 33 35 34 33 31 30 32 33 34 35 34
26 27 28 29 29 30 31 32 33 34 35 36 37 38 39 39 40 39 39 38 37 36 36 36 37 39 39 39 38 33 31 35 36 32 31 32 32 34 36 36 36 35
25 25 26 26 27 27 28 28 29 30 31 32 33 33 34 35 35 36 36 35 35 35 35 36 37 38 38 37 34 30 31 34 32 28 32 35 36 36 38 39 38 36
23 24 24 24 25 25 25 26 27 28 29 29 30 31 32 33 33 33 33 32 33 33 33 34 34 34 34 31 27 31 35 34 28 28 32 34 33 34 35 37 37 36
22 22 22 22 23 23 24 25 25 26 27 28 29 29 30 31 31 30 30 29 29 29 29 29 28 28 28 24 24 31 35 31 27 28 30 31 31 32 31 33 34 34
22 22 22 22 23 23 23 24 24 25 26 27 28 29 29 29 29 28 27 26 26 25 24 23 23 23 22 23 25 26 27 28 29 31 32 34 34 34 31 30 30 31
23 23 22 22 22 21 21 22 23 24 25 25 26 27 27 27 27 25 24 22 22 21 18 16 17 17 19 25 29 25 22 28 34 35 37 38 37 36 32 28 28 28
24 23 21 21 21 21 22 23 24 25 25 25 25 25 25 24 23 22 20 19 18 17 14 13 13 14 17 22 24 21 21 27 34 36 38 39 38 36 31 28 27 28
25 24 23 23 23 24 25 26 26 25 24 23 21 20 20 19 18 17 16 15 15 15 15 15 16 17 18 19 21 20 21 24 29 33 35 35 33 31 28 27 28 29
27 26 25 25 25 26 26 25 25 24 22 20 18 16 16 17 17 17 17 17 18 18 19 20 21 22 22 22 23 22 22 24 27 29 30 29 28 27 27 28 30 31
27 26 26 26 26 25 25 24 23 23 22 20 19 19 20 22 22 23 23 22 22 22 22 23 24 24 24 24 24 22 23 26 27 27 27 27 28 29 30 31 32 34
28 28 27 26 26 25 25 24 24 24 22 21 20 22 24 25 25 25 25 25 25 24 24 23 24 24 24 24 24 23 24 26 27 28 28 29 31 32 32 33 34 36
30 30 29 28 27 27 25 25 24 24 24 23 23 23 24 24 25 25 25 25 24 24 24 23 22 22 22 23 23 24 25 27 28 29 30 30 31 32 33 34 35 35
Wind_Direction
262 264 267 270 270 270 270 270 270 269 269 270 271 272 273 274 274 275 276 277 277 276 276 276 276 276 276 277 277 277 277 277 277 277 277 277 276 276 275 274 273 274
262 264 267 270 270 271 271 271 271 270 270 271 272 274 274 275 276 277 278 278 278 278 278 276 276 276 276 277 277 277 277 277 276 276 276 276 275 274 273 271 271 271
263 265 268 270 271 271 271 271 271 271 272 273 275 277 279 280 280 279 279 279 279 279 279 278 277 277 277 277 277 277 277 277 276 275 275 275 274 272 269 268 268 270
264 265 267 268 269 269 270 271 272 273 274 275 278 280 282 283 283 283 282 281 281 280 280 280 279 279 279 278 278 277 278 277 276 275 275 274 272 269 267 267 267 268
264 265 266 267 267 268 268 270 272 274 275 277 279 281 282 284 285 285 285 284 284 282 281 281 281 281 281 281 280 278 277 277 276 275 275 274 271 268 265 265 266 267
264 265 265 265 266 266 267 269 271 273 274 276 278 279 281 283 283 284 284 284 284 283 282 281 280 281 281 282 281 279 276 276 275 274 274 273 271 268 265 264 265 266
264 264 263 263 264 265 266 268 270 272 273 274 275 277 279 280 281 281 281 281 281 280 280 279 279 279 280 281 281 279 276 274 273 273 272 272 270 267 265 264 264 265
263 263 262 262 264 265 266 268 270 272 272 273 274 276 277 278 279 279 279 279 278 277 276 276 277 277 277 279 280 280 277 273 271 270 269 269 267 266 265 264 264 264
261 261 262 262 264 265 267 268 271 271 272 273 274 274 275 276 277 278 278 278 276 274 273 273 275 276 276 277 278 278 276 273 270 268 267 267 266 265 266 266 265 264
263 263 262 263 264 265 266 268 269 271 272 273 273 273 274 275 276 277 277 277 276 274 271 271 273 275 276 276 277 278 275 272 270 268 267 267 266 265 266 266 265 265
268 268 267 266 266 266 267 268 269 271 272 273 273 274 275 275 276 276 277 277 276 273 271 270 271 273 274 274 277 278 276 273 271 269 267 267 267 267 266 266 265 265
270 271 272 271 270 269 269 269 270 271 272 273 274 274 275 276 276 276 276 275 274 272 269 268 268 269 271 274 277 277 276 274 273 272 270 269 268 267 266 266 266 265
270 270 271 270 270 270 270 270 270 271 272 272 273 273 274 275 275 275 275 274 272 270 267 266 266 267 270 273 275 276 275 275 275 274 273 272 271 269 268 268 268 266
269 270 270 270 271 271 271 272 273 273 274 274 274 275 275 275 275 275 274 274 274 272 269 267 266 268 271 273 276 276 272 271 274 274 273 273 271 271 270 269 268 264
270 270 271 272 272 273 274 275 276 277 277 278 278 278 277 277 276 275 274 274 274 273 272 271 270 272 273 274 276 273 265 268 274 273 271 272 272 270 269 267 266 261
272 272 272 273 274 275 276 277 278 279 280 281 281 280 280 279 278 277 276 275 274 273 273 272 273 273 274 276 277 271 267 272 273 265 260 266 272 271 268 266 264 260
273 273 273 274 275 276 278 279 280 281 282 283 283 282 282 281 280 278 278 276 275 274 273 274 274 274 275 275 266 260 268 276 271 260 259 266 275 277 270 265 262 257
273 273 275 277 279 281 282 282 284 284 284 284 284 283 282 281 280 279 278 277 276 275 275 275 275 274 273 271 256 254 266 275 270 266 268 272 281 287 278 264 257 253
271 274 277 280 282 284 285 286 287 287 287 287 285 284 283 281 280 278 277 277 275 274 274 274 276 277 274 272 268 265 271 272 262 261 270 274 281 290 284 265 254 249
272 275 278 281 282 285 288 291 293 293 292 291 288 286 284 282 281 278 277 277 274 272 270 270 275 274 262 260 266 268 268 265 254 251 263 272 279 288 283 264 252 249
274 276 277 279 282 288 292 295 296 295 294 292 288 286 285 283 283 281 279 277 273 270 270 271 274 270 256 254 262 261 256 256 253 252 261 270 277 284 278 263 254 251
275 276 276 279 282 288 292 294 294 293 292 290 287 285 285 286 287 288 287 284 281 280 282 282 280 278 271 263 263 260 254 254 255 257 263 269 275 278 271 262 258 254
273 274 275 277 282 285 287 288 289 289 287 284 284 286 290 292 293 293 292 289 286 285 283 281 279 278 275 268 265 263 259 258 261 263 267 271 273 271 267 264 262 258
270 270 271 274 278 280 282 284 286 284 280 275 278 284 288 291 292 292 290 287 283 281 280 279 278 275 273 272 270 265 258 259 263 265 266 267 267 266 266 266 264 261
265 266 268 271 274 276 279 282 282 279 272 268 271 278 283 286 289 291 290 287 284 283 284 283 281 278 278 279 278 274 269 268 268 267 267 267 268 267 268 268 267 265
260 262 265 267 271 275 277 278 277 273 267 265 268 273 278 283 287 289 288 286 285 285 285 285 283 282 282 282 281 279 278 276 273 272 273 272 271 271 270 270 269 268
Height
3144 3145 3145 3145 3146 3146 3147 3147 3147 3148 3148 3148 3149 3150 3150 3151 3151 3150 3149 3149 3148 3148 3148 3148 3148 3148 3148 3148 3148 3147 3147 3147 3147 3147 3146 3146 3146 3145 3145 3145 3145 3145
3140 3141 3141 3142 3142 3143 3143 3143 3144 3144 3145 3145 3145 3146 3146 3147 3147 3146 3146 3145 3144 3144 3144 3144 3143 3143 3143 3143 3143 3143 3143 3143 3143 3143 3142 3142 3142 3141 3141 3141 3141 3141
3136 3137 3137 3138 3139 3139 3140 3140 3140 3140 3141 3142 3142 3143 3143 3143 3144 3143 3143 3142 3141 3141 3140 3139 3139 3139 3139 3139 3139 3139 3138 3138 3138 3138 3138 3137 3137 3137 3137 3136 3136 3137
3131 3132 3133 3134 3135 3135 3136 3135 3136 3136 3137 3138 3138 3139 3139 3140 3140 3140 3139 3139 3138 3138 3137 3136 3136 3135 3135 3134 3134 3134 3134 3134 3134 3133 3133 3133 3133 3133 3133 3132 3132 3132
3127 3128 3129 3129 3130 3131 3131 3131 3132 3133 3133 3133 3134 3134 3135 3136 3136 3135 3135 3135 3134 3134 3133 3132 3132 3131 3131 3130 3130 3129 3129 3129 3129 3129 3128 3128 3129 3129 3128 3128 3128 3128
3122 3123 3124 3125 3125 3126 3126 3126 3128 3128 3128 3129 3129 3129 3130 3130 3131 3131 3130 3130 3129 3129 3128 3127 3126 3126 3126 3126 3125 3125 3124 3124 3124 3124 3123 3123 3123 3123 3123 3123 3123 3124
3117 3118 3119 3119 3120 3120 3121 3122 3123 3123 3124 3124 3123 3124 3125 3125 3125 3125 3125 3124 3124 3123 3122 3121 3121 3121 3121 3121 3121 3120 3120 3119 3119 3119 3119 3119 3119 3118 3118 3119 3119 3119
3112 3113 3114 3114 3114 3115 3116 3117 3118 3118 3118 3118 3118 3119 3119 3119 3119 3119 3119 3118 3118 3117 3116 3115 3115 3115 3116 3116 3116 3115 3115 3114 3114 3114 3114 3114 3114 3114 3114 3115 3115 3115
3106 3107 3108 3108 3109 3110 3111 3112 3112 3113 3113 3112 3113 3113 3113 3113 3113 3113 3113 3113 3112 3111 3110 3109 3109 3109 3110 3111 3110 3110 3110 3109 3109 3109 3109 3109 3110 3110 3110 3110 3110 3110
3101 3102 3102 3103 3104 3105 3106 3107 3107 3107 3107 3107 3108 3108 3108 3108 3108 3107 3107 3107 3106 3105 3105 3104 3103 3104 3105 3105 3105 3105 3105 3105 3104 3104 3104 3104 3105 3105 3105 3105 3106 3106
3097 3098 3098 3099 3100 3101 3101 3102 3102 3102 3102 3102 3103 3103 3103 3102 3102 3102 3102 3101 3101 3100 3099 3098 3099 3099 3100 3100 3100 3100 3100 3100 3100 3100 3100 3100 3100 3100 3100 3101 3101 3101
3093 3094 3094 3095 3096 3096 3097 3097 3097 3097 3098 3098 3098 3097 3097 3097 3097 3096 3096 3095 3095 3094 3093 3093 3093 3094 3094 3095 3095 3095 3095 3095 3095 3095 3095 3095 3096 3096 3096 3096 3096 3097
3090 3090 3090 3091 3091 3092 3092 3092 3092 3093 3092 3092 3092 3092 3092 3091 3091 3091 3090 3089 3089 3088 3088 3088 3088 3089 3089 3089 3090 3090 3090 3090 3090 3091 3091 3091 3091 3091 3091 3092 3092 3092
3086 3087 3087 3088 3088 3088 3088 3088 3088 3088 3088 3087 3087 3087 3086 3086 3086 3086 3085 3084 3084 3083 3083 3083 3084 3084 3084 3085 3085 3085 3086 3086 3086 3086 3086 3087 3087 3087 3087 3087 3087 3087
3083 3084 3084 3084 3084 3084 3084 3084 3084 3084 3083 3083 3082 3082 3082 3081 3081 3080 3080 3079 3079 3079 3079 3079 3079 3080 3080 3081 3081 3081 3082 3083 3082 3082 3082 3082 3083 3083 3082 3082 3083 3083
3080 3080 3080 3080 3081 3081 3081 3081 3080 3080 3079 3079 3078 3078 3077 3077 3076 3075 3075 3075 3075 3074 3074 3074 3075 3075 3076 3076 3077 3077 3078 3078 3078 3078 3079 3079 3079 3079 3078 3078 3079 3079
3076 3077 3077 3077 3077 3077 3077 3077 3077 3076 3076 3075 3075 3074 3073 3073 3072 3071 3071 3071 3070 3070 3070 3070 3071 3071 3072 3072 3073 3073 3074 3074 3074 3075 3075 3075 3075 3074 3073 3073 3074 3075
3073 3074 3074 3074 3074 3075 3074 3074 3074 3073 3072 3072 3071 3070 3070 3069 3068 3067 3067 3067 3066 3066 3066 3067 3067 3067 3068 3068 3070 3071 3071 3070 3070 3071 3071 3072 3071 3070 3070 3069 3070 3071
3071 3071 3071 3072 3072 3072 3071 3071 3071 3070 3070 3069 3068 3067 3067 3066 3065 3064 3064 3063 3063 3063 3063 3063 3064 3064 3064 3065 3066 3067 3067 3066 3066 3067 3068 3068 3068 3068 3067 3066 3067 3068
3068 3068 3068 3069 3069 3069 3069 3068 3068 3068 3067 3066 3065 3065 3064 3063 3062 3062 3061 3060 3060 3060 3060 3060 3060 3060 3061 3062 3063 3064 3064 3064 3064 3065 3065 3065 3065 3065 3064 3064 3065 3066
3064 3065 3065 3066 3066 3066 3066 3065 3065 3065 3064 3063 3063 3062 3061 3061 3060 3059 3059 3058 3058 3058 3058 3058 3058 3058 3059 3060 3060 3060 3061 3061 3062 3063 3063 3063 3063 3062 3062 3062 3063 3064
3061 3062 3062 3063 3063 3063 3063 3062 3062 3062 3061 3061 3060 3059 3059 3058 3058 3057 3057 3057 3057 3057 3056 3056 3056 3056 3056 3056 3056 3057 3058 3059 3059 3060 3060 3060 3060 3060 3060 3060 3061 3061
3058 3058 3059 3059 3059 3059 3059 3059 3059 3059 3058 3058 3057 3057 3057 3056 3056 3056 3055 3055 3055 3054 3054 3054 3053 3053 3053 3053 3053 3053 3055 3056 3057 3057 3057 3057 3058 3058 3058 3058 3058 3059
3054 3054 3055 3055 3055 3055 3055 3055 3055 3055 3055 3055 3054 3054 3054 3053 3053 3053 3053 3052 3052 3051 3051 3051 3050 3050 3050 3050 3051 3051 3052 3053 3054 3054 3055 3055 3055 3055 3055 3055 3055 3055
3050 3050 3051 3051 3051 3051 3051 3051 3051 3051 3051 3051 3051 3050 3050 3050 3050 3050 3049 3049 3049 3048 3048 3048 3047 3047 3047 3048 3048 3049 3049 3050 3051 3051 3051 3052 3052 3052 3052 3052 3052 3052
3045 3046 3046 3047 3047 3047 3047 3047 3047 3047 3047 3047 3047 3046 3046 3046 3046 3046 3046 3046 3046 3046 3046 3046 3045 3045 3045 3045 3046 3046 3047 3047 3047 3048 3048 3048 3048 3048 3048 3048 3048 3048